Weather Roundup
Issued by NWS Chicago, IL

Home | Current Version | Previous Version | Graphics & Text | Print | Product List | Glossary On
Versions: 1 2 3 4 5 6 7 8 9 10 11 12 13 14 15 16 17 18 19 20 21 22 23 24 25 26 27 28 29 30 31 32 33 34 35 36 37 38 39 40 41 42 43 44 45 46 47 48 49 50
000
NZUS59 KLOT 281306
HRRLOT

CHICAGO AREA WEATHER ROUNDUP
NATIONAL WEATHER SERVICE CHICAGO/ROMEOVILLE IL
700 AM CST SAT FEB 28 2015

NOTE: "FAIR" INDICATES FEW OR NO CLOUDS BELOW 12,000 FEET WITH NO
SIGNIFICANT WEATHER AND/OR OBSTRUCTIONS TO VISIBILITY.

* THESE STATIONS ARE NOT UNDER NWS QUALITY CONTROL. THEY ALSO MAY NOT
  REPORT WEATHER SUCH AS PRECIPITATION OR FOG.

ILZ005-006-012>014-019>023-281400-
NORTHEAST ILLINOIS

CITY           SKY/WX    TMP DP  RH WIND       PRES   REMARKS
OHARE          MOCLDY    -6  -8  91 CALM      30.70R
MIDWAY         PTCLDY     2  -2  83 CALM      30.72R
AURORA         PTCLDY   -13 -20  71 CALM      30.70R
LANSING*       PTCLDY   -12 -17  79 CALM      30.73R
JOLIET*        FOG       -8 -13  80 CALM      30.73R VSB<1/4
WAUKEGAN       MOCLDY    -5  -8  87 SW3       30.68S
DUPAGE AIRPORT MOCLDY   -11 -16  78 CALM      30.69R
WHEELING       MOCLDY    -8 -14  74 CALM      30.72R
KANKAKEE*      PTCLDY    -3  -7  82 E3        30.72S
MORRIS*        FOG       -6 -10  85 CALM      30.71S VSB<1/4
LEWIS AIRPORT* MOCLDY    -4  -9  81 S6        30.71S HAZE    WCI -17
NORTHERLY IS     N/A      7  -1  70 SW1         N/A
$$

WIZ051-052-058>065-066-070>072-281400-
SOUTHEAST WISCONSIN

CITY           SKY/WX    TMP DP  RH WIND       PRES   REMARKS
MILWAUKEE      PTCLDY    -3  -9  75 SW3       30.67S
KENOSHA*       MOCLDY    -8 -14  74 SW3       30.68R
RACINE*        PTCLDY    -5 -11  75 SW7       30.69S WCI -19
BURLINGTON     MOCLDY   -18 -24  76 CALM      30.66F
WAUKESHA       CLEAR     -4  -9  77 W5        30.65S WCI -15
WEST BEND      CLEAR     -4  -9  77 CALM      30.63S
$$

INZ001>003-010>013-019-020-281400-
NORTHWEST INDIANA

CITY           SKY/WX    TMP DP  RH WIND       PRES   REMARKS
GARY*          PTCLDY    -8 -15  71 CALM      30.73R
MICHIGAN CITY* NOT AVBL
RENSSELAER*    NOT AVBL
VALPARAISO     PTCLDY    -8 -12  83 CALM      30.72R
$$

LMZ740>746-281400-
SOUTHERN LAKE MICHIGAN

STATION/POSITION TIME  SKY/WX   TEMP WIND        PRES    VSBY
                                AIR  DIR/SP/G
                 (UTC)          (F)  (DEG/KT/KT) (MB)    (MI)
HARRISON CRIB    1300            10  200/  4/  7   N/A
BURNHAM HARBOR   1300             7  200/  2/  4   N/A
CALUMET HARBOR   1300             2  210/  4/  5 1038.8R
BURNS HARBOR     NOT AVBL
MICHIGAN CITY    1300             1  140/  6/  7   N/A
$$

ABBREVIATIONS USED IN REMARKS
   TC - TEMPERATURE IN CELSIUS
  WCI - WIND CHILL INDEX
   HX - HEAT INDEX
  VSB - VISIBILITY
$$



USA.gov is the U.S. government's official web portal to all federal, state and local government web resources and services.